AAL27 TGPY-TNCC

Flight info

Callsign AAL27
Flight time 1h 12m
Altitude 34000
Route KAPAM DCT VAMEL DCT PJB DCT D114K
Aircraft A320/M-SDE3FGHIRWY/LB1

Departure

Time 2026-05-05 23:17
Airport Maurice Bishop International Airport (TGPY)

Arrival

Time 2026-05-06 00:30
Airport Hato International Airport (TNCC)
Time Latitude Longitude Altitude Speed Heading
2026-05-05 22:59 12.00655 -61.78577 41 ft 0 kts 360°
2026-05-05 23:09 12.00651 -61.78577 41 ft 2 kts
2026-05-05 23:09 12.00636 -61.78577 41 ft 2 kts 360°
2026-05-05 23:09 12.00627 -61.78577 41 ft 2 kts
2026-05-05 23:10 12.00612 -61.78574 41 ft 2 kts 335°
2026-05-05 23:10 12.00599 -61.78566 41 ft 2 kts 315°
2026-05-05 23:10 12.00590 -61.78554 41 ft 2 kts 296°
2026-05-05 23:10 12.00585 -61.78539 40 ft 1 kts 275°
2026-05-05 23:11 12.00585 -61.78532 40 ft 1 kts 267°
2026-05-05 23:11 12.00585 -61.78530 40 ft 0 kts 269°
2026-05-05 23:13 12.00585 -61.78535 40 ft 1 kts 269°
2026-05-05 23:13 12.00584 -61.78559 41 ft 4 kts 258°
2026-05-05 23:13 12.00557 -61.78593 41 ft 7 kts 195°
2026-05-05 23:14 12.00492 -61.78599 41 ft 10 kts 181°
2026-05-05 23:14 12.00410 -61.78614 41 ft 12 kts 220°
2026-05-05 23:14 12.00400 -61.78705 41 ft 14 kts 271°
2026-05-05 23:14 12.00402 -61.78813 42 ft 16 kts 270°
2026-05-05 23:15 12.00402 -61.78935 43 ft 18 kts 270°
2026-05-05 23:15 12.00401 -61.79076 43 ft 20 kts 269°
2026-05-05 23:15 12.00404 -61.79229 43 ft 23 kts 271°
2026-05-05 23:15 12.00406 -61.79401 41 ft 25 kts 269°
2026-05-05 23:16 12.00412 -61.79588 39 ft 27 kts 275°
2026-05-05 23:16 12.00429 -61.79781 38 ft 25 kts 290°
2026-05-05 23:16 12.00403 -61.79836 37 ft 11 kts 117°
2026-05-05 23:16 12.00411 -61.79765 38 ft 17 kts 83°
2026-05-05 23:17 12.00409 -61.79389 41 ft 87 kts 90°
2026-05-05 23:17 12.00398 -61.78547 40 ft 146 kts 93°
2026-05-05 23:17 12.00416 -61.77425 441 ft 159 kts 89°
2026-05-05 23:17 12.00452 -61.76365 1253 ft 147 kts 84°
2026-05-05 23:18 12.00860 -61.75518 2032 ft 137 kts 45°
2026-05-05 23:18 12.01743 -61.75102 2424 ft 149 kts 18°
2026-05-05 23:18 12.02857 -61.75145 2694 ft 171 kts 358°
2026-05-05 23:18 12.04064 -61.75471 2976 ft 193 kts 337°
2026-05-05 23:19 12.05059 -61.76506 3270 ft 218 kts 300°
2026-05-05 23:19 12.05629 -61.78007 3606 ft 236 kts 288°
2026-05-05 23:19 12.06114 -61.79662 3942 ft 254 kts 284°
2026-05-05 23:19 12.06160 -61.81535 4210 ft 275 kts 253°
2026-05-05 23:20 12.05466 -61.83424 4692 ft 288 kts 243°
2026-05-05 23:20 12.04634 -61.85303 5417 ft 293 kts 244°
2026-05-05 23:20 12.03857 -61.87212 6249 ft 294 kts 247°
2026-05-05 23:20 12.03149 -61.89152 7048 ft 297 kts 249°
2026-05-05 23:21 12.02466 -61.91153 7786 ft 302 kts 249°
2026-05-05 23:21 12.01793 -61.93187 8516 ft 306 kts 250°
2026-05-05 23:21 12.01111 -61.95278 9215 ft 310 kts 252°
2026-05-05 23:21 12.00631 -61.97444 9901 ft 315 kts 262°
2026-05-05 23:22 12.00512 -61.99683 10513 ft 322 kts 270°
2026-05-05 23:22 12.00563 -62.02038 10891 ft 338 kts 272°
2026-05-05 23:22 12.00651 -62.04454 11436 ft 345 kts 272°
2026-05-05 23:22 12.00738 -62.06907 12063 ft 349 kts 273°
2026-05-05 23:23 12.00820 -62.09383 12661 ft 353 kts 273°
2026-05-05 23:23 12.00896 -62.11911 13257 ft 358 kts 273°
2026-05-05 23:23 12.00971 -62.14454 13863 ft 361 kts 273°
2026-05-05 23:23 12.01044 -62.17012 14545 ft 361 kts 273°
2026-05-05 23:24 12.01115 -62.19579 15244 ft 360 kts 273°
2026-05-05 23:24 12.01184 -62.22121 15910 ft 360 kts 273°
2026-05-05 23:24 12.01252 -62.24657 16571 ft 360 kts 273°
2026-05-05 23:24 12.01319 -62.27210 17225 ft 360 kts 273°
2026-05-05 23:25 12.01388 -62.29754 17847 ft 360 kts 273°
2026-05-05 23:25 12.01456 -62.32291 18409 ft 362 kts 272°
2026-05-05 23:25 12.01525 -62.34878 18938 ft 364 kts 272°
2026-05-05 23:25 12.01594 -62.37456 19449 ft 366 kts 272°
2026-05-05 23:26 12.01662 -62.40038 19949 ft 368 kts 272°
2026-05-05 23:26 12.01731 -62.42671 20435 ft 371 kts 272°
2026-05-05 23:26 12.01799 -62.45302 20909 ft 373 kts 272°
2026-05-05 23:26 12.01869 -62.47983 21380 ft 375 kts 271°
2026-05-05 23:27 12.01937 -62.50642 21835 ft 377 kts 271°
2026-05-05 23:27 12.02006 -62.53330 22283 ft 378 kts 271°
2026-05-05 23:27 12.02076 -62.56070 22738 ft 380 kts 271°
2026-05-05 23:27 12.02143 -62.58798 23165 ft 382 kts 271°
2026-05-05 23:28 12.02210 -62.61509 23562 ft 385 kts 271°
2026-05-05 23:28 12.02278 -62.64258 23955 ft 387 kts 271°
2026-05-05 23:28 12.02346 -62.67010 24347 ft 390 kts 271°
2026-05-05 23:28 12.02414 -62.69759 24721 ft 392 kts 271°
2026-05-05 23:29 12.02483 -62.72542 25084 ft 395 kts 271°
2026-05-05 23:29 12.02553 -62.75358 25451 ft 397 kts 271°
2026-05-05 23:29 12.02623 -62.78193 25810 ft 400 kts 271°
2026-05-05 23:29 12.02694 -62.81042 26148 ft 402 kts 271°
2026-05-05 23:30 12.02764 -62.83902 26474 ft 405 kts 272°
2026-05-05 23:30 12.02834 -62.86754 26799 ft 407 kts 271°
2026-05-05 23:30 12.02905 -62.89674 27125 ft 410 kts 272°
2026-05-05 23:30 12.02976 -62.92609 27447 ft 412 kts 272°
2026-05-05 23:31 12.03046 -62.95546 27758 ft 414 kts 272°
2026-05-05 23:31 12.03118 -62.98513 28068 ft 417 kts 272°
2026-05-05 23:31 12.03189 -63.01483 28368 ft 419 kts 272°
2026-05-05 23:31 12.03260 -63.04459 28655 ft 421 kts 272°
2026-05-05 23:32 12.03331 -63.07453 28961 ft 423 kts 272°
2026-05-05 23:32 12.03401 -63.10424 29267 ft 425 kts 272°
2026-05-05 23:32 12.03471 -63.13440 29557 ft 427 kts 272°
2026-05-05 23:32 12.03543 -63.16507 29856 ft 429 kts 272°
2026-05-05 23:33 12.03613 -63.19521 30146 ft 431 kts 272°
2026-05-05 23:33 12.03684 -63.22597 30431 ft 433 kts 272°
2026-05-05 23:33 12.03755 -63.25667 30700 ft 435 kts 272°
2026-05-05 23:33 12.03826 -63.28759 30974 ft 437 kts 272°
2026-05-05 23:34 12.03897 -63.31876 31242 ft 440 kts 272°
2026-05-05 23:34 12.03968 -63.35015 31511 ft 442 kts 272°
2026-05-05 23:34 12.04039 -63.38147 31767 ft 444 kts 272°
2026-05-05 23:34 12.04110 -63.41300 32019 ft 446 kts 272°
2026-05-05 23:35 12.04180 -63.44426 32265 ft 448 kts 272°
2026-05-05 23:35 12.04250 -63.47615 32524 ft 449 kts 272°
2026-05-05 23:35 12.04321 -63.50811 32794 ft 451 kts 272°
2026-05-05 23:35 12.04392 -63.54010 33065 ft 453 kts 272°
2026-05-05 23:36 12.04463 -63.57244 33358 ft 454 kts 272°
2026-05-05 23:36 12.04533 -63.60476 33705 ft 454 kts 272°
2026-05-05 23:36 12.04602 -63.63675 33984 ft 455 kts 272°
2026-05-05 23:36 12.04673 -63.66906 33992 ft 455 kts 272°
2026-05-05 23:37 12.04810 -63.73355 33998 ft 455 kts 272°
2026-05-05 23:37 12.04946 -63.79824 33994 ft 455 kts 272°
2026-05-05 23:38 12.05083 -63.86360 33993 ft 455 kts 272°
2026-05-05 23:38 12.05216 -63.92881 33994 ft 455 kts 272°
2026-05-05 23:39 12.05349 -63.99371 33995 ft 455 kts 272°
2026-05-05 23:39 12.05479 -64.05815 33989 ft 455 kts 272°
2026-05-05 23:40 12.05609 -64.12282 33987 ft 455 kts 272°
2026-05-05 23:40 12.05736 -64.18696 33988 ft 455 kts 272°
2026-05-05 23:41 12.05861 -64.25147 33988 ft 454 kts 272°
2026-05-05 23:41 12.05984 -64.31583 33989 ft 454 kts 272°
2026-05-05 23:42 12.06106 -64.37987 33988 ft 453 kts 272°
2026-05-05 23:42 12.06228 -64.44410 33989 ft 453 kts 272°
2026-05-05 23:43 12.06348 -64.50865 33988 ft 453 kts 272°
2026-05-05 23:43 12.06465 -64.57252 33992 ft 453 kts 272°
2026-05-05 23:44 12.06582 -64.63696 33988 ft 452 kts 272°
2026-05-05 23:44 12.06696 -64.70119 33990 ft 452 kts 272°
2026-05-05 23:45 12.06808 -64.76537 33989 ft 452 kts 272°
2026-05-05 23:45 12.06922 -64.82936 33992 ft 452 kts 272°
2026-05-05 23:46 12.07033 -64.89401 33988 ft 452 kts 272°
2026-05-05 23:46 12.07142 -64.95837 33992 ft 452 kts 272°
2026-05-05 23:47 12.07249 -65.02254 33991 ft 451 kts 272°
2026-05-05 23:47 12.07354 -65.08670 34000 ft 451 kts 272°
2026-05-05 23:48 12.07458 -65.15046 34005 ft 451 kts 272°
2026-05-05 23:48 12.07561 -65.21426 34008 ft 451 kts 272°
2026-05-05 23:49 12.07663 -65.27801 34004 ft 451 kts 272°
2026-05-05 23:49 12.07762 -65.34223 34008 ft 451 kts 272°
2026-05-05 23:50 12.07859 -65.40613 34003 ft 451 kts 272°
2026-05-05 23:50 12.07956 -65.46999 34006 ft 450 kts 272°
2026-05-05 23:51 12.08051 -65.53359 34000 ft 449 kts 272°
2026-05-05 23:51 12.08145 -65.59724 33997 ft 449 kts 272°
2026-05-05 23:52 12.08238 -65.66101 33994 ft 449 kts 271°
2026-05-05 23:52 12.08328 -65.72474 33994 ft 449 kts 271°
2026-05-05 23:53 12.08416 -65.78853 33991 ft 450 kts 272°
2026-05-05 23:53 12.08505 -65.85251 33994 ft 449 kts 271°
2026-05-05 23:54 12.08592 -65.91628 33993 ft 448 kts 271°
2026-05-05 23:54 12.08677 -65.97989 33992 ft 448 kts 271°
2026-05-05 23:55 12.08760 -66.04338 33988 ft 448 kts 271°
2026-05-05 23:55 12.08839 -66.10680 33991 ft 448 kts 271°
2026-05-05 23:56 12.08919 -66.17039 33991 ft 448 kts 271°
2026-05-05 23:56 12.08998 -66.23383 33991 ft 447 kts 272°
2026-05-05 23:57 12.09075 -66.29720 33991 ft 446 kts 271°
2026-05-05 23:57 12.09150 -66.36037 33984 ft 446 kts 271°
2026-05-05 23:58 12.09222 -66.42335 33982 ft 446 kts 271°
2026-05-05 23:58 12.09292 -66.48676 33982 ft 446 kts 271°
2026-05-05 23:59 12.09418 -66.55004 33979 ft 446 kts 272°
2026-05-05 23:59 12.09588 -66.61286 33981 ft 446 kts 272°
2026-05-06 00:00 12.09752 -66.67627 33981 ft 446 kts 272°
2026-05-06 00:00 12.09910 -66.73953 33980 ft 445 kts 272°
2026-05-06 00:01 12.10066 -66.80299 33974 ft 444 kts 272°
2026-05-06 00:01 12.10216 -66.86559 33975 ft 444 kts 272°
2026-05-06 00:02 12.10366 -66.92844 33976 ft 443 kts 272°
2026-05-06 00:02 12.10514 -66.99125 33979 ft 443 kts 272°
2026-05-06 00:03 12.10660 -67.05394 33976 ft 442 kts 272°
2026-05-06 00:03 12.10806 -67.11694 33970 ft 443 kts 272°
2026-05-06 00:04 12.10949 -67.17944 33973 ft 442 kts 272°
2026-05-06 00:04 12.11091 -67.24231 33971 ft 442 kts 272°
2026-05-06 00:05 12.11232 -67.30507 33749 ft 443 kts 272°
2026-05-06 00:05 12.11302 -67.33638 33265 ft 440 kts 272°
2026-05-06 00:05 12.11369 -67.36719 32642 ft 438 kts 272°
2026-05-06 00:06 12.11438 -67.39829 32039 ft 435 kts 272°
2026-05-06 00:06 12.11505 -67.42909 31612 ft 430 kts 272°
2026-05-06 00:06 12.11571 -67.45935 31172 ft 424 kts 272°
2026-05-06 00:06 12.11636 -67.48935 30727 ft 420 kts 272°
2026-05-06 00:07 12.11699 -67.51891 30282 ft 415 kts 272°
2026-05-06 00:07 12.11762 -67.54811 29839 ft 411 kts 272°
2026-05-06 00:07 12.11823 -67.57726 29391 ft 407 kts 272°
2026-05-06 00:07 12.11884 -67.60597 28950 ft 403 kts 272°
2026-05-06 00:08 12.11943 -67.63423 28514 ft 400 kts 273°
2026-05-06 00:08 12.12004 -67.66271 28103 ft 396 kts 272°
2026-05-06 00:08 12.12063 -67.69064 27684 ft 393 kts 273°
2026-05-06 00:08 12.12121 -67.71815 27265 ft 391 kts 273°
2026-05-06 00:09 12.12180 -67.74584 26838 ft 388 kts 272°
2026-05-06 00:09 12.12237 -67.77334 26412 ft 385 kts 272°
2026-05-06 00:09 12.12294 -67.80051 25989 ft 383 kts 272°
2026-05-06 00:09 12.12349 -67.82724 25569 ft 380 kts 272°
2026-05-06 00:10 12.12404 -67.85410 25144 ft 378 kts 272°
2026-05-06 00:10 12.12457 -67.88090 24718 ft 376 kts 272°
2026-05-06 00:10 12.12510 -67.90755 24290 ft 374 kts 272°
2026-05-06 00:10 12.12562 -67.93397 23869 ft 372 kts 272°
2026-05-06 00:11 12.12614 -67.95988 23473 ft 369 kts 273°
2026-05-06 00:11 12.12665 -67.98593 23078 ft 367 kts 273°
2026-05-06 00:11 12.12717 -68.01185 22688 ft 364 kts 273°
2026-05-06 00:11 12.12768 -68.03775 22297 ft 362 kts 273°
2026-05-06 00:12 12.12820 -68.06335 21901 ft 360 kts 272°
2026-05-06 00:12 12.12870 -68.08878 21501 ft 358 kts 272°
2026-05-06 00:12 12.12920 -68.11405 21101 ft 357 kts 272°
2026-05-06 00:12 12.12970 -68.13944 20685 ft 356 kts 272°
2026-05-06 00:13 12.13018 -68.16499 20243 ft 356 kts 272°
2026-05-06 00:13 12.13066 -68.19009 19814 ft 356 kts 272°
2026-05-06 00:13 12.13113 -68.21529 19376 ft 356 kts 272°
2026-05-06 00:13 12.13162 -68.24065 18936 ft 356 kts 271°
2026-05-06 00:14 12.13232 -68.26564 18479 ft 357 kts 273°
2026-05-06 00:14 12.13354 -68.29121 18013 ft 358 kts 273°
2026-05-06 00:14 12.13483 -68.31634 17567 ft 359 kts 273°
2026-05-06 00:14 12.13613 -68.34187 17125 ft 359 kts 273°
2026-05-06 00:15 12.13738 -68.36732 16716 ft 359 kts 272°
2026-05-06 00:15 12.13859 -68.39249 16287 ft 359 kts 272°
2026-05-06 00:15 12.13980 -68.41788 15869 ft 358 kts 272°
2026-05-06 00:15 12.14100 -68.44321 15434 ft 358 kts 272°
2026-05-06 00:16 12.14220 -68.46849 15008 ft 357 kts 272°
2026-05-06 00:16 12.14339 -68.49381 14583 ft 357 kts 272°
2026-05-06 00:16 12.14457 -68.51923 14155 ft 356 kts 272°
2026-05-06 00:16 12.14574 -68.54447 13722 ft 355 kts 272°
2026-05-06 00:17 12.14690 -68.56931 13298 ft 354 kts 272°
2026-05-06 00:17 12.14806 -68.59443 12876 ft 353 kts 272°
2026-05-06 00:17 12.14922 -68.61945 12447 ft 351 kts 272°
2026-05-06 00:17 12.15036 -68.64419 12032 ft 350 kts 272°
2026-05-06 00:18 12.15150 -68.66887 11613 ft 348 kts 271°
2026-05-06 00:18 12.15263 -68.69344 11195 ft 345 kts 271°
2026-05-06 00:18 12.15374 -68.71785 10763 ft 343 kts 271°
2026-05-06 00:18 12.15485 -68.74220 10350 ft 341 kts 271°
2026-05-06 00:19 12.15594 -68.76589 10049 ft 335 kts 271°
2026-05-06 00:19 12.15702 -68.78951 9907 ft 322 kts 271°
2026-05-06 00:19 12.15810 -68.81202 9571 ft 319 kts 273°
2026-05-06 00:19 12.16233 -68.83428 9193 ft 317 kts 288°
2026-05-06 00:20 12.17128 -68.85461 8839 ft 314 kts 297°
2026-05-06 00:20 12.18155 -68.87399 8492 ft 311 kts 298°
2026-05-06 00:20 12.19200 -68.89325 8148 ft 308 kts 298°
2026-05-06 00:20 12.20229 -68.91241 7801 ft 306 kts 298°
2026-05-06 00:21 12.21243 -68.93152 7454 ft 304 kts 297°
2026-05-06 00:21 12.22246 -68.95062 7107 ft 302 kts 297°
2026-05-06 00:21 12.23231 -68.96947 6767 ft 300 kts 297°
2026-05-06 00:21 12.24201 -68.98806 6531 ft 294 kts 296°
2026-05-06 00:22 12.25162 -69.00652 6247 ft 289 kts 296°
2026-05-06 00:22 12.26090 -69.02438 5978 ft 285 kts 296°
2026-05-06 00:22 12.27019 -69.04233 5731 ft 281 kts 296°
2026-05-06 00:22 12.27923 -69.05977 5488 ft 277 kts 297°
2026-05-06 00:23 12.28821 -69.07707 5213 ft 274 kts 297°
2026-05-06 00:23 12.29713 -69.09423 4857 ft 275 kts 298°
2026-05-06 00:23 12.30565 -69.11186 4492 ft 276 kts 288°
2026-05-06 00:23 12.30676 -69.13114 4119 ft 274 kts 252°
2026-05-06 00:24 12.29724 -69.14731 3757 ft 263 kts 214°
2026-05-06 00:24 12.28147 -69.15511 3402 ft 250 kts 183°
2026-05-06 00:24 12.26462 -69.15493 3231 ft 233 kts 167°
2026-05-06 00:24 12.24887 -69.15325 3214 ft 220 kts 167°
2026-05-06 00:25 12.23415 -69.15009 3169 ft 210 kts 143°
2026-05-06 00:25 12.22518 -69.13947 3104 ft 198 kts 104°
2026-05-06 00:25 12.22301 -69.12562 3009 ft 197 kts 97°
2026-05-06 00:25 12.22064 -69.11184 2871 ft 194 kts 100°
2026-05-06 00:26 12.21799 -69.09871 2653 ft 182 kts 100°
2026-05-06 00:26 12.21541 -69.08637 2348 ft 176 kts 99°
2026-05-06 00:26 12.21292 -69.07457 2171 ft 161 kts 99°
2026-05-06 00:26 12.21063 -69.06370 1914 ft 151 kts 98°
2026-05-06 00:27 12.20849 -69.05355 1697 ft 141 kts 98°
2026-05-06 00:27 12.20652 -69.04419 1493 ft 129 kts 98°
2026-05-06 00:27 12.20471 -69.03550 1372 ft 126 kts 98°
2026-05-06 00:27 12.20289 -69.02667 1199 ft 125 kts 99°
2026-05-06 00:28 12.20110 -69.01810 1027 ft 124 kts 99°
2026-05-06 00:28 12.19931 -69.00951 859 ft 123 kts 99°
2026-05-06 00:28 12.19746 -69.00096 686 ft 123 kts 100°
2026-05-06 00:28 12.19566 -68.99233 457 ft 122 kts 98°
2026-05-06 00:29 12.19399 -68.98389 269 ft 121 kts 100°
2026-05-06 00:29 12.19229 -68.97550 120 ft 121 kts 101°
2026-05-06 00:29 12.19049 -68.96707 49 ft 118 kts 101°
2026-05-06 00:29 12.18906 -68.96022 43 ft 80 kts 102°
2026-05-06 00:30 12.18807 -68.95565 43 ft 51 kts 101°
2026-05-06 00:30 12.18709 -68.95394 43 ft 22 kts 192°
2026-05-06 00:30 12.18603 -68.95453 43 ft 15 kts 243°
2026-05-06 00:30 12.18616 -68.95521 43 ft 10 kts 281°
2026-05-06 00:31 12.18629 -68.95597 43 ft 9 kts 257°
2026-05-06 00:31 12.18575 -68.95624 43 ft 8 kts 178°
2026-05-06 00:31 12.18543 -68.95630 43 ft 2 kts 191°
2026-05-06 00:31 12.18541 -68.95630 43 ft 0 kts 190°